DAL2862 KATL-KOKC

Flight info

Callsign DAL2862
Flight time 2h 4m
Altitude 36000
Route NASSA2 YAALL J14 DWINE RIFFL3
Aircraft A319/M-SDE3FGHIRWY/LB1

Departure

Time 2026-05-07 20:24
Airport Hartsfield Jackson Atlanta International Airport (KATL)

Arrival

Time 2026-05-07 22:28
Airport OKC Will Rogers World Airport (KOKC)
Time Latitude Longitude Altitude Speed Heading
2026-05-07 20:03 33.63876 -84.43636 1036 ft 0 kts 90°
2026-05-07 20:12 33.63877 -84.43648 1035 ft 4 kts 91°
2026-05-07 20:12 33.63877 -84.43679 1035 ft 4 kts 86°
2026-05-07 20:12 33.63872 -84.43709 1035 ft 4 kts 53°
2026-05-07 20:12 33.63855 -84.43723 1035 ft 1 kts
2026-05-07 20:13 33.63854 -84.43723 1035 ft 0 kts
2026-05-07 20:14 33.63860 -84.43723 1035 ft 3 kts
2026-05-07 20:14 33.63895 -84.43723 1035 ft 7 kts
2026-05-07 20:15 33.63949 -84.43723 1035 ft 9 kts
2026-05-07 20:15 33.64023 -84.43722 1035 ft 12 kts
2026-05-07 20:15 33.64108 -84.43722 1035 ft 12 kts
2026-05-07 20:15 33.64198 -84.43722 1035 ft 15 kts
2026-05-07 20:16 33.64311 -84.43722 1035 ft 17 kts 360°
2026-05-07 20:16 33.64430 -84.43718 1035 ft 17 kts 17°
2026-05-07 20:16 33.64459 -84.43597 1036 ft 16 kts 92°
2026-05-07 20:16 33.64458 -84.43462 1036 ft 16 kts 89°
2026-05-07 20:17 33.64459 -84.43327 1036 ft 16 kts 89°
2026-05-07 20:17 33.64460 -84.43194 1036 ft 16 kts 90°
2026-05-07 20:17 33.64460 -84.43051 1036 ft 18 kts 90°
2026-05-07 20:17 33.64460 -84.42904 1035 ft 18 kts 89°
2026-05-07 20:18 33.64464 -84.42754 1035 ft 18 kts 83°
2026-05-07 20:18 33.64468 -84.42604 1035 ft 18 kts 90°
2026-05-07 20:18 33.64469 -84.42451 1035 ft 19 kts 89°
2026-05-07 20:18 33.64470 -84.42285 1035 ft 20 kts 83°
2026-05-07 20:19 33.64533 -84.42137 1035 ft 20 kts 61°
2026-05-07 20:19 33.64543 -84.41974 1035 ft 20 kts 90°
2026-05-07 20:19 33.64543 -84.41812 1036 ft 19 kts 89°
2026-05-07 20:19 33.64543 -84.41654 1036 ft 19 kts 90°
2026-05-07 20:20 33.64543 -84.41499 1036 ft 19 kts 89°
2026-05-07 20:20 33.64543 -84.41345 1036 ft 18 kts 90°
2026-05-07 20:20 33.64544 -84.41193 1036 ft 18 kts 90°
2026-05-07 20:20 33.64544 -84.41061 1036 ft 7 kts 90°
2026-05-07 20:21 33.64544 -84.40995 1035 ft 9 kts 89°
2026-05-07 20:21 33.64544 -84.40912 1035 ft 10 kts 90°
2026-05-07 20:21 33.64545 -84.40826 1035 ft 10 kts 83°
2026-05-07 20:21 33.64562 -84.40740 1035 ft 11 kts 77°
2026-05-07 20:22 33.64570 -84.40647 1034 ft 11 kts 86°
2026-05-07 20:22 33.64581 -84.40593 1034 ft 5 kts 59°
2026-05-07 20:22 33.64589 -84.40583 1034 ft 1 kts 47°
2026-05-07 20:22 33.64589 -84.40582 1034 ft 0 kts 47°
2026-05-07 20:23 33.64598 -84.40576 1034 ft 4 kts 28°
2026-05-07 20:23 33.64645 -84.40580 1033 ft 10 kts 337°
2026-05-07 20:23 33.64679 -84.40674 1033 ft 18 kts 268°
2026-05-07 20:23 33.64678 -84.41096 1036 ft 85 kts 272°
2026-05-07 20:24 33.64696 -84.42059 1040 ft 142 kts 274°
2026-05-07 20:24 33.64697 -84.43275 1478 ft 147 kts 276°
2026-05-07 20:24 33.64682 -84.44508 2072 ft 149 kts 272°
2026-05-07 20:24 33.64727 -84.45745 2682 ft 149 kts 283°
2026-05-07 20:25 33.64959 -84.47019 3095 ft 166 kts 283°
2026-05-07 20:25 33.65222 -84.48472 3400 ft 190 kts 282°
2026-05-07 20:25 33.65520 -84.50126 3719 ft 215 kts 282°
2026-05-07 20:25 33.65855 -84.51982 4158 ft 240 kts 281°
2026-05-07 20:26 33.66216 -84.53986 4888 ft 250 kts 281°
2026-05-07 20:26 33.66587 -84.56036 5864 ft 251 kts 281°
2026-05-07 20:26 33.66960 -84.58080 6844 ft 251 kts 281°
2026-05-07 20:26 33.67324 -84.60118 7842 ft 247 kts 280°
2026-05-07 20:27 33.67671 -84.62135 8789 ft 247 kts 280°
2026-05-07 20:27 33.68012 -84.64157 9743 ft 247 kts 279°
2026-05-07 20:27 33.68349 -84.66182 10610 ft 246 kts 279°
2026-05-07 20:27 33.68686 -84.68193 11493 ft 245 kts 280°
2026-05-07 20:28 33.69021 -84.70185 12453 ft 242 kts 281°
2026-05-07 20:28 33.69352 -84.72152 13424 ft 239 kts 281°
2026-05-07 20:28 33.69678 -84.74087 14310 ft 235 kts 280°
2026-05-07 20:28 33.69954 -84.76019 15047 ft 235 kts 275°
2026-05-07 20:29 33.69994 -84.77979 15757 ft 236 kts 270°
2026-05-07 20:29 33.69985 -84.79951 16480 ft 236 kts 269°
2026-05-07 20:29 33.69980 -84.81964 16870 ft 250 kts 269°
2026-05-07 20:29 33.69974 -84.84135 17001 ft 270 kts 269°
2026-05-07 20:30 33.69969 -84.86462 17143 ft 287 kts 269°
2026-05-07 20:30 33.69965 -84.88936 17349 ft 302 kts 269°
2026-05-07 20:30 33.69961 -84.91481 17852 ft 307 kts 268°
2026-05-07 20:30 33.69956 -84.94061 18441 ft 310 kts 268°
2026-05-07 20:31 33.69950 -84.96658 18960 ft 312 kts 268°
2026-05-07 20:31 33.69943 -84.99244 19468 ft 315 kts 268°
2026-05-07 20:31 33.69937 -85.01890 19975 ft 318 kts 268°
2026-05-07 20:31 33.69931 -85.04562 20465 ft 321 kts 268°
2026-05-07 20:32 33.69923 -85.07260 20942 ft 325 kts 268°
2026-05-07 20:32 33.69917 -85.09983 21408 ft 328 kts 268°
2026-05-07 20:32 33.69908 -85.12729 21866 ft 330 kts 268°
2026-05-07 20:32 33.69896 -85.15499 22321 ft 333 kts 268°
2026-05-07 20:33 33.69882 -85.18298 22772 ft 336 kts 268°
2026-05-07 20:33 33.69868 -85.21112 23223 ft 338 kts 268°
2026-05-07 20:33 33.69856 -85.23952 23648 ft 341 kts 268°
2026-05-07 20:33 33.69832 -85.26803 23999 ft 343 kts 268°
2026-05-07 20:34 33.69799 -85.29673 24357 ft 345 kts 268°
2026-05-07 20:34 33.69764 -85.32563 24684 ft 346 kts 268°
2026-05-07 20:34 33.69727 -85.35456 25060 ft 347 kts 268°
2026-05-07 20:34 33.69692 -85.38354 25427 ft 348 kts 268°
2026-05-07 20:35 33.69656 -85.41268 25791 ft 350 kts 268°
2026-05-07 20:35 33.69620 -85.44194 26152 ft 351 kts 268°
2026-05-07 20:35 33.69583 -85.47132 26506 ft 353 kts 268°
2026-05-07 20:35 33.69547 -85.50083 26859 ft 354 kts 268°
2026-05-07 20:36 33.69511 -85.53045 27204 ft 356 kts 268°
2026-05-07 20:36 33.69475 -85.56020 27551 ft 357 kts 268°
2026-05-07 20:36 33.69438 -85.59005 27887 ft 358 kts 268°
2026-05-07 20:36 33.69400 -85.61994 28211 ft 359 kts 268°
2026-05-07 20:37 33.69359 -85.65001 28525 ft 361 kts 268°
2026-05-07 20:37 33.69317 -85.68022 28836 ft 362 kts 268°
2026-05-07 20:37 33.69273 -85.71056 29138 ft 364 kts 268°
2026-05-07 20:37 33.69228 -85.74096 29402 ft 365 kts 268°
2026-05-07 20:38 33.69181 -85.77149 29735 ft 366 kts 268°
2026-05-07 20:38 33.69133 -85.80193 30159 ft 364 kts 268°
2026-05-07 20:38 33.69086 -85.83222 30530 ft 362 kts 268°
2026-05-07 20:38 33.69039 -85.86238 30880 ft 361 kts 268°
2026-05-07 20:39 33.68991 -85.89240 31226 ft 360 kts 268°
2026-05-07 20:39 33.68943 -85.92247 31560 ft 359 kts 268°
2026-05-07 20:39 33.68895 -85.95241 31904 ft 358 kts 267°
2026-05-07 20:39 33.68850 -85.98229 32241 ft 357 kts 267°
2026-05-07 20:40 33.68805 -86.01210 32588 ft 357 kts 267°
2026-05-07 20:40 33.68774 -86.04186 32929 ft 356 kts 269°
2026-05-07 20:40 33.68976 -86.07153 33273 ft 357 kts 271°
2026-05-07 20:40 33.69209 -86.10117 33621 ft 356 kts 271°
2026-05-07 20:41 33.69445 -86.13075 33962 ft 355 kts 271°
2026-05-07 20:41 33.69681 -86.16026 34280 ft 355 kts 271°
2026-05-07 20:41 33.69918 -86.18976 34650 ft 353 kts 271°
2026-05-07 20:41 33.70150 -86.21886 35039 ft 349 kts 271°
2026-05-07 20:42 33.70378 -86.24780 35377 ft 347 kts 271°
2026-05-07 20:42 33.70602 -86.27659 35646 ft 346 kts 271°
2026-05-07 20:42 33.70821 -86.30532 35903 ft 345 kts 271°
2026-05-07 20:43 33.71255 -86.36282 36014 ft 346 kts 271°
2026-05-07 20:43 33.71684 -86.42026 36020 ft 346 kts 271°
2026-05-07 20:44 33.72127 -86.47782 36025 ft 346 kts 271°
2026-05-07 20:44 33.72569 -86.53530 36031 ft 345 kts 271°
2026-05-07 20:45 33.73003 -86.59271 36037 ft 345 kts 271°
2026-05-07 20:45 33.73437 -86.65027 36043 ft 346 kts 271°
2026-05-07 20:46 33.73867 -86.70783 36043 ft 346 kts 271°
2026-05-07 20:46 33.74221 -86.75566 36045 ft 346 kts 271°
2026-05-07 20:47 33.74712 -86.82296 36048 ft 346 kts 271°
2026-05-07 20:47 33.75061 -86.87087 36026 ft 346 kts 271°
2026-05-07 20:48 33.75477 -86.92840 36026 ft 346 kts 271°
2026-05-07 20:48 33.75890 -86.98594 36031 ft 345 kts 271°
2026-05-07 20:49 33.76369 -87.05284 36031 ft 345 kts 271°
2026-05-07 20:49 33.76715 -87.10106 36031 ft 345 kts 271°
2026-05-07 20:50 33.77120 -87.15855 36028 ft 345 kts 271°
2026-05-07 20:50 33.77522 -87.21605 36052 ft 345 kts 271°
2026-05-07 20:51 33.77919 -87.27357 36055 ft 345 kts 271°
2026-05-07 20:51 33.78319 -87.33107 36073 ft 345 kts 271°
2026-05-07 20:52 33.78713 -87.38817 36069 ft 344 kts 271°
2026-05-07 20:52 33.79101 -87.44553 36063 ft 344 kts 271°
2026-05-07 20:53 33.79790 -87.50260 36053 ft 348 kts 278°
2026-05-07 20:53 33.80979 -87.55903 36049 ft 348 kts 278°
2026-05-07 20:54 33.82154 -87.61544 36048 ft 348 kts 278°
2026-05-07 20:54 33.83329 -87.67193 36040 ft 348 kts 278°
2026-05-07 20:55 33.84503 -87.72838 36050 ft 348 kts 279°
2026-05-07 20:55 33.85676 -87.78481 36043 ft 347 kts 279°
2026-05-07 20:56 33.86834 -87.84120 36036 ft 347 kts 278°
2026-05-07 20:56 33.87983 -87.89760 36033 ft 347 kts 278°
2026-05-07 20:57 33.89137 -87.95394 36035 ft 347 kts 278°
2026-05-07 20:57 33.90292 -88.01026 36032 ft 346 kts 279°
2026-05-07 20:58 33.91447 -88.06658 36028 ft 346 kts 278°
2026-05-07 20:58 33.92599 -88.12292 36020 ft 347 kts 278°
2026-05-07 20:59 33.93746 -88.17936 36018 ft 347 kts 278°
2026-05-07 20:59 33.94889 -88.23599 36048 ft 348 kts 278°
2026-05-07 21:00 33.96036 -88.29275 36027 ft 349 kts 278°
2026-05-07 21:00 33.97184 -88.34959 36025 ft 350 kts 278°
2026-05-07 21:01 33.98331 -88.40656 36023 ft 350 kts 278°
2026-05-07 21:01 33.99479 -88.46364 36025 ft 350 kts 278°
2026-05-07 21:02 34.00626 -88.52078 36024 ft 351 kts 278°
2026-05-07 21:02 34.01774 -88.57816 36025 ft 352 kts 278°
2026-05-07 21:03 34.02915 -88.63564 36039 ft 353 kts 278°
2026-05-07 21:03 34.04055 -88.69325 36040 ft 353 kts 278°
2026-05-07 21:04 34.05201 -88.75095 36041 ft 353 kts 278°
2026-05-07 21:04 34.06338 -88.80823 36045 ft 354 kts 278°
2026-05-07 21:05 34.07473 -88.86596 36044 ft 354 kts 277°
2026-05-07 21:05 34.08603 -88.92364 36045 ft 354 kts 278°
2026-05-07 21:06 34.09736 -88.98143 36049 ft 354 kts 277°
2026-05-07 21:06 34.10864 -89.03930 36052 ft 354 kts 277°
2026-05-07 21:07 34.11991 -89.09710 36059 ft 354 kts 277°
2026-05-07 21:07 34.13115 -89.15493 36058 ft 354 kts 277°
2026-05-07 21:08 34.14239 -89.21275 36055 ft 354 kts 277°
2026-05-07 21:08 34.15362 -89.27059 36068 ft 354 kts 277°
2026-05-07 21:09 34.16481 -89.32838 36071 ft 353 kts 277°
2026-05-07 21:09 34.17589 -89.38608 36075 ft 353 kts 277°
2026-05-07 21:10 34.18693 -89.44381 36078 ft 353 kts 277°
2026-05-07 21:10 34.19797 -89.50157 36082 ft 353 kts 277°
2026-05-07 21:11 34.20986 -89.55914 36082 ft 354 kts 279°
2026-05-07 21:11 34.23118 -89.64421 36099 ft 349 kts 280°
2026-05-07 21:12 34.24512 -89.70031 36088 ft 348 kts 279°
2026-05-07 21:12 34.25871 -89.75653 36066 ft 348 kts 279°
2026-05-07 21:13 34.27228 -89.81273 36065 ft 349 kts 279°
2026-05-07 21:13 34.28582 -89.86902 36060 ft 349 kts 279°
2026-05-07 21:14 34.29933 -89.92535 36061 ft 349 kts 279°
2026-05-07 21:14 34.31282 -89.98169 36062 ft 349 kts 279°
2026-05-07 21:15 34.32627 -90.03812 36066 ft 349 kts 279°
2026-05-07 21:15 34.33969 -90.09464 36068 ft 350 kts 279°
2026-05-07 21:16 34.35318 -90.15124 36070 ft 350 kts 279°
2026-05-07 21:16 34.36668 -90.20778 36073 ft 350 kts 279°
2026-05-07 21:17 34.38010 -90.26436 36076 ft 350 kts 279°
2026-05-07 21:17 34.39338 -90.32077 36082 ft 350 kts 279°
2026-05-07 21:18 34.40672 -90.37745 36087 ft 350 kts 279°
2026-05-07 21:18 34.42010 -90.43420 36099 ft 350 kts 279°
2026-05-07 21:19 34.43351 -90.49093 36104 ft 350 kts 279°
2026-05-07 21:19 34.44681 -90.54768 36107 ft 350 kts 279°
2026-05-07 21:20 34.46006 -90.60437 36098 ft 350 kts 279°
2026-05-07 21:20 34.47326 -90.66116 36099 ft 350 kts 279°
2026-05-07 21:21 34.48641 -90.71746 36109 ft 344 kts 278°
2026-05-07 21:21 34.49933 -90.77322 36110 ft 343 kts 278°
2026-05-07 21:22 34.51225 -90.82897 36105 ft 343 kts 278°
2026-05-07 21:22 34.52505 -90.88433 36103 ft 343 kts 278°
2026-05-07 21:23 34.53788 -90.94008 36106 ft 343 kts 278°
2026-05-07 21:23 34.55069 -90.99585 36104 ft 343 kts 278°
2026-05-07 21:24 34.56355 -91.05195 36104 ft 343 kts 278°
2026-05-07 21:24 34.57636 -91.10781 36110 ft 343 kts 278°
2026-05-07 21:25 34.58904 -91.16329 36109 ft 343 kts 278°
2026-05-07 21:25 34.60175 -91.21912 36105 ft 343 kts 278°
2026-05-07 21:26 34.61452 -91.27493 36096 ft 343 kts 278°
2026-05-07 21:26 34.62720 -91.33076 36104 ft 343 kts 278°
2026-05-07 21:27 34.63977 -91.38658 36103 ft 343 kts 278°
2026-05-07 21:27 34.65034 -91.43351 36101 ft 343 kts 278°
2026-05-07 21:28 34.66295 -91.48941 36101 ft 343 kts 278°
2026-05-07 21:28 34.67554 -91.54532 36084 ft 343 kts 278°
2026-05-07 21:29 34.68811 -91.60127 36082 ft 343 kts 278°
2026-05-07 21:29 34.70065 -91.65728 36096 ft 344 kts 278°
2026-05-07 21:30 34.71314 -91.71333 36097 ft 344 kts 278°
2026-05-07 21:30 34.72565 -91.76945 36130 ft 343 kts 278°
2026-05-07 21:31 34.73801 -91.82518 36108 ft 340 kts 278°
2026-05-07 21:31 34.75027 -91.88029 36091 ft 340 kts 278°
2026-05-07 21:32 34.76253 -91.93583 36073 ft 340 kts 278°
2026-05-07 21:32 34.77482 -91.99142 36065 ft 341 kts 278°
2026-05-07 21:33 34.78713 -92.04721 36064 ft 342 kts 278°
2026-05-07 21:33 34.79942 -92.10310 36073 ft 342 kts 278°
2026-05-07 21:34 34.81074 -92.15910 36072 ft 337 kts 272°
2026-05-07 21:34 34.81586 -92.21568 36070 ft 336 kts 271°
2026-05-07 21:35 34.82095 -92.27232 36071 ft 337 kts 271°
2026-05-07 21:35 34.82607 -92.32898 36072 ft 337 kts 271°
2026-05-07 21:36 34.83123 -92.38567 36072 ft 337 kts 271°
2026-05-07 21:36 34.83630 -92.44230 36073 ft 337 kts 271°
2026-05-07 21:37 34.84131 -92.49905 36065 ft 337 kts 271°
2026-05-07 21:37 34.84635 -92.55584 36066 ft 337 kts 271°
2026-05-07 21:38 34.85129 -92.61262 36068 ft 337 kts 271°
2026-05-07 21:38 34.85626 -92.66932 36070 ft 337 kts 271°
2026-05-07 21:39 34.86126 -92.72613 36066 ft 337 kts 271°
2026-05-07 21:39 34.86617 -92.78298 36065 ft 338 kts 271°
2026-05-07 21:40 34.87107 -92.83986 36067 ft 338 kts 271°
2026-05-07 21:40 34.87595 -92.89678 36070 ft 338 kts 271°
2026-05-07 21:41 34.88080 -92.95374 36069 ft 338 kts 271°
2026-05-07 21:41 34.88563 -93.01079 36071 ft 338 kts 271°
2026-05-07 21:42 34.89036 -93.06778 36069 ft 338 kts 271°
2026-05-07 21:42 34.89519 -93.12483 36067 ft 338 kts 271°
2026-05-07 21:43 34.89993 -93.18155 36064 ft 339 kts 271°
2026-05-07 21:43 34.90469 -93.23896 36056 ft 339 kts 271°
2026-05-07 21:44 34.90932 -93.29569 36059 ft 339 kts 271°
2026-05-07 21:44 34.91401 -93.35284 36060 ft 339 kts 271°
2026-05-07 21:45 34.91867 -93.40999 36065 ft 339 kts 271°
2026-05-07 21:45 34.92328 -93.46718 36066 ft 339 kts 271°
2026-05-07 21:46 34.92783 -93.52436 36067 ft 339 kts 271°
2026-05-07 21:46 34.93239 -93.58156 36068 ft 339 kts 271°
2026-05-07 21:47 34.93689 -93.63878 36069 ft 339 kts 271°
2026-05-07 21:47 34.94144 -93.69570 36071 ft 335 kts 271°
2026-05-07 21:48 34.94590 -93.75221 36064 ft 335 kts 271°
2026-05-07 21:48 34.95028 -93.80879 36065 ft 336 kts 271°
2026-05-07 21:49 34.95471 -93.86547 36060 ft 336 kts 271°
2026-05-07 21:49 34.95910 -93.92221 36060 ft 336 kts 271°
2026-05-07 21:50 34.96346 -93.97903 36065 ft 337 kts 271°
2026-05-07 21:50 34.96774 -94.03586 36067 ft 337 kts 271°
2026-05-07 21:51 34.97195 -94.09270 36068 ft 336 kts 270°
2026-05-07 21:51 34.97619 -94.14952 36070 ft 336 kts 271°
2026-05-07 21:52 34.98048 -94.20635 36069 ft 336 kts 270°
2026-05-07 21:52 34.98469 -94.26326 36071 ft 337 kts 270°
2026-05-07 21:53 34.98891 -94.32021 36070 ft 337 kts 270°
2026-05-07 21:53 34.99308 -94.37717 36070 ft 337 kts 270°
2026-05-07 21:54 34.99724 -94.43408 36073 ft 337 kts 270°
2026-05-07 21:54 35.00137 -94.49105 36074 ft 337 kts 270°
2026-05-07 21:55 35.00544 -94.54802 36075 ft 337 kts 270°
2026-05-07 21:55 35.00943 -94.60498 36065 ft 337 kts 270°
2026-05-07 21:56 35.01345 -94.66200 36065 ft 337 kts 270°
2026-05-07 21:56 35.01909 -94.71860 36066 ft 340 kts 274°
2026-05-07 21:57 35.02732 -94.77548 36064 ft 340 kts 274°
2026-05-07 21:57 35.03567 -94.83227 36065 ft 340 kts 274°
2026-05-07 21:58 35.04366 -94.88955 36062 ft 340 kts 274°
2026-05-07 21:58 35.05134 -94.94613 36065 ft 340 kts 274°
2026-05-07 21:59 35.05895 -95.00307 36058 ft 340 kts 273°
2026-05-07 21:59 35.06655 -95.06011 36053 ft 340 kts 273°
2026-05-07 22:00 35.07419 -95.11724 36055 ft 341 kts 273°
2026-05-07 22:00 35.07800 -95.14584 35933 ft 342 kts 273°
2026-05-07 22:00 35.08181 -95.17445 35686 ft 341 kts 273°
2026-05-07 22:01 35.08564 -95.20310 35447 ft 342 kts 273°
2026-05-07 22:01 35.08946 -95.23183 35206 ft 343 kts 273°
2026-05-07 22:01 35.09329 -95.26060 34969 ft 344 kts 273°
2026-05-07 22:01 35.09706 -95.28912 34736 ft 344 kts 273°
2026-05-07 22:02 35.10086 -95.31803 34501 ft 346 kts 273°
2026-05-07 22:02 35.10467 -95.34705 34258 ft 347 kts 273°
2026-05-07 22:02 35.10851 -95.37622 34022 ft 349 kts 273°
2026-05-07 22:02 35.11233 -95.40549 33755 ft 350 kts 273°
2026-05-07 22:03 35.11619 -95.43491 33495 ft 352 kts 274°
2026-05-07 22:03 35.12005 -95.46446 33235 ft 353 kts 274°
2026-05-07 22:03 35.12389 -95.49447 33038 ft 354 kts 274°
2026-05-07 22:03 35.12751 -95.52432 32781 ft 355 kts 273°
2026-05-07 22:04 35.12985 -95.54404 32613 ft 356 kts 273°
2026-05-07 22:04 35.13339 -95.57408 32358 ft 357 kts 274°
2026-05-07 22:04 35.13692 -95.60419 32108 ft 359 kts 274°
2026-05-07 22:04 35.14168 -95.64464 31770 ft 360 kts 274°
2026-05-07 22:05 35.14405 -95.66468 31603 ft 361 kts 274°
2026-05-07 22:05 35.14889 -95.70546 31282 ft 363 kts 274°
2026-05-07 22:05 35.15129 -95.72576 31103 ft 365 kts 274°
2026-05-07 22:05 35.15491 -95.75660 30866 ft 368 kts 274°
2026-05-07 22:06 35.15852 -95.78764 30628 ft 370 kts 274°
2026-05-07 22:06 35.16216 -95.81880 30392 ft 371 kts 274°
2026-05-07 22:06 35.16582 -95.85009 30157 ft 372 kts 274°
2026-05-07 22:06 35.16950 -95.88149 29886 ft 374 kts 275°
2026-05-07 22:07 35.17319 -95.91303 29614 ft 376 kts 275°
2026-05-07 22:07 35.17688 -95.94473 29336 ft 378 kts 275°
2026-05-07 22:07 35.18057 -95.97656 28878 ft 378 kts 275°
2026-05-07 22:07 35.18424 -96.00845 27818 ft 380 kts 275°
2026-05-07 22:08 35.18790 -96.04046 26924 ft 379 kts 276°
2026-05-07 22:08 35.19155 -96.07218 26214 ft 375 kts 276°
2026-05-07 22:08 35.19518 -96.10362 25498 ft 372 kts 276°
2026-05-07 22:08 35.19877 -96.13485 24846 ft 369 kts 276°
2026-05-07 22:09 35.20110 -96.15518 24714 ft 359 kts 276°
2026-05-07 22:09 35.20563 -96.19476 24385 ft 346 kts 276°
2026-05-07 22:09 35.20895 -96.22374 24159 ft 343 kts 276°
2026-05-07 22:09 35.21204 -96.25259 23853 ft 342 kts 276°
2026-05-07 22:10 35.21489 -96.28114 23311 ft 341 kts 276°
2026-05-07 22:10 35.21768 -96.31025 22776 ft 340 kts 276°
2026-05-07 22:10 35.22041 -96.33888 22261 ft 338 kts 276°
2026-05-07 22:10 35.22316 -96.36738 21750 ft 337 kts 276°
2026-05-07 22:11 35.22592 -96.39540 21246 ft 335 kts 276°
2026-05-07 22:11 35.22871 -96.42366 20741 ft 334 kts 276°
2026-05-07 22:11 35.23147 -96.45210 20228 ft 332 kts 276°
2026-05-07 22:11 35.23417 -96.47974 19728 ft 331 kts 276°
2026-05-07 22:12 35.23689 -96.50765 19226 ft 330 kts 276°
2026-05-07 22:12 35.23960 -96.53546 18727 ft 329 kts 276°
2026-05-07 22:12 35.24229 -96.56322 18210 ft 328 kts 276°
2026-05-07 22:12 35.24496 -96.59093 17673 ft 327 kts 276°
2026-05-07 22:13 35.24763 -96.61849 17179 ft 325 kts 277°
2026-05-07 22:13 35.24998 -96.64594 16746 ft 323 kts 275°
2026-05-07 22:13 35.25155 -96.67330 16395 ft 322 kts 274°
2026-05-07 22:13 35.25272 -96.70059 16026 ft 321 kts 274°
2026-05-07 22:14 35.25374 -96.72781 15659 ft 320 kts 273°
2026-05-07 22:14 35.25478 -96.75484 15367 ft 314 kts 274°
2026-05-07 22:14 35.25582 -96.78103 15245 ft 302 kts 274°
2026-05-07 22:14 35.25688 -96.80620 15124 ft 292 kts 274°
2026-05-07 22:15 35.25795 -96.83060 14976 ft 283 kts 274°
2026-05-07 22:15 35.25905 -96.85448 14671 ft 280 kts 274°
2026-05-07 22:15 35.26016 -96.87829 14322 ft 280 kts 274°
2026-05-07 22:15 35.26124 -96.90210 13977 ft 280 kts 274°
2026-05-07 22:16 35.26194 -96.91780 13762 ft 279 kts 274°
2026-05-07 22:16 35.26339 -96.94953 13266 ft 278 kts 274°
2026-05-07 22:16 35.26445 -96.97311 12893 ft 278 kts 274°
2026-05-07 22:16 35.26549 -96.99675 12525 ft 277 kts 274°
2026-05-07 22:17 35.26651 -97.02028 12161 ft 276 kts 274°
2026-05-07 22:17 35.26756 -97.04368 11799 ft 276 kts 274°
2026-05-07 22:17 35.26862 -97.06714 11428 ft 275 kts 274°
2026-05-07 22:17 35.26966 -97.09052 11059 ft 275 kts 274°
2026-05-07 22:18 35.27068 -97.11380 10700 ft 274 kts 274°
2026-05-07 22:18 35.27212 -97.16038 9981 ft 274 kts 264°
2026-05-07 22:18 35.26814 -97.18309 9579 ft 274 kts 255°
2026-05-07 22:19 35.26220 -97.20526 9153 ft 274 kts 252°
2026-05-07 22:19 35.25561 -97.22711 8746 ft 273 kts 251°
2026-05-07 22:19 35.24897 -97.24886 8350 ft 272 kts 252°
2026-05-07 22:19 35.24250 -97.27058 7945 ft 272 kts 253°
2026-05-07 22:20 35.23622 -97.29236 7527 ft 271 kts 253°
2026-05-07 22:20 35.23011 -97.31410 7140 ft 270 kts 254°
2026-05-07 22:20 35.22408 -97.33584 6738 ft 269 kts 254°
2026-05-07 22:20 35.21809 -97.35753 6346 ft 269 kts 254°
2026-05-07 22:21 35.21215 -97.37916 5931 ft 267 kts 253°
2026-05-07 22:21 35.20625 -97.40063 5528 ft 265 kts 253°
2026-05-07 22:21 35.20041 -97.42190 5143 ft 262 kts 252°
2026-05-07 22:21 35.19465 -97.44287 4998 ft 260 kts 252°
2026-05-07 22:22 35.19083 -97.45680 4997 ft 260 kts 252°
2026-05-07 22:22 35.18316 -97.48454 4994 ft 249 kts 252°
2026-05-07 22:22 35.17783 -97.50372 5005 ft 232 kts 252°
2026-05-07 22:22 35.17324 -97.52189 4930 ft 218 kts 260°
2026-05-07 22:23 35.17290 -97.53972 4917 ft 204 kts 278°
2026-05-07 22:23 35.17679 -97.55592 4890 ft 197 kts 295°
2026-05-07 22:23 35.18427 -97.56987 4814 ft 197 kts 309°
2026-05-07 22:23 35.19473 -97.58059 4661 ft 198 kts 327°
2026-05-07 22:24 35.20745 -97.58715 4469 ft 200 kts 343°
2026-05-07 22:24 35.22141 -97.58883 4232 ft 203 kts 357°
2026-05-07 22:24 35.23551 -97.58882 3975 ft 203 kts 357°
2026-05-07 22:24 35.24963 -97.58882 3722 ft 203 kts 357°
2026-05-07 22:25 35.26375 -97.58883 3478 ft 202 kts 357°
2026-05-07 22:25 35.27753 -97.58888 3248 ft 192 kts 359°
2026-05-07 22:25 35.29078 -97.58870 2961 ft 182 kts 357°
2026-05-07 22:25 35.30273 -97.58879 2750 ft 163 kts 355°
2026-05-07 22:26 35.31357 -97.58882 2545 ft 149 kts 355°
2026-05-07 22:26 35.32371 -97.58885 2360 ft 143 kts 356°
2026-05-07 22:26 35.33375 -97.58887 2174 ft 145 kts 356°
2026-05-07 22:26 35.34384 -97.58889 1999 ft 145 kts 356°
2026-05-07 22:27 35.35377 -97.58890 1810 ft 144 kts 355°
2026-05-07 22:27 35.36389 -97.58892 1634 ft 145 kts 357°
2026-05-07 22:27 35.37399 -97.58892 1432 ft 146 kts 356°
2026-05-07 22:27 35.38402 -97.58883 1310 ft 136 kts 356°
2026-05-07 22:28 35.39234 -97.58907 1296 ft 98 kts 358°
2026-05-07 22:28 35.39768 -97.58898 1295 ft 55 kts
2026-05-07 22:28 35.40116 -97.58889 1298 ft 32 kts
2026-05-07 22:28 35.40296 -97.58887 1300 ft 25 kts
2026-05-07 22:29 35.40387 -97.58918 1300 ft 12 kts 304°
2026-05-07 22:29 35.40392 -97.59013 1298 ft 0 kts 268°
2026-05-07 22:29 35.40392 -97.59025 1297 ft 3 kts 268°
2026-05-07 22:29 35.40391 -97.59034 1297 ft 0 kts 265°
2026-05-07 22:30 35.40391 -97.59036 1297 ft 0 kts 265°
2026-05-07 22:30 35.40390 -97.59037 1297 ft 0 kts 257°
2026-05-07 22:31 35.40390 -97.59038 1297 ft 1 kts 248°